MM9SQL Weather Reports


time (UTC)temp
F
wind
direction
speed
knots
gust
knots
rain 1hr
in
rain 24hr
in
rain mn
in
humidity
%
barometer
mb
20260508011518 51 288 1.7 6.1 0.00 0.00 0.00 68 1009.1
20260508003502 51 214 2.6 7.8 0.00 0.00 0.00 67 1009.0
20260508000017 51 234 4.3 8.7 0.00 0.00 0.00 66 1008.8
20260507225508 50 250 2.6 7.8 0.00 0.00 0.00 65 1009.0
20260507220012 50 213 0.0 3.5 0.00 0.00 0.00 67 1009.3
20260507215504 50 208 0.0 2.6 0.00 0.00 0.00 66 1009.3
20260507215006 50 223 0.0 6.1 0.00 0.00 0.00 66 1009.4
20260507214502 51 211 1.7 6.1 0.00 0.00 0.00 65 1009.5
20260507214003 51 207 0.9 5.2 0.00 0.00 0.00 66 1009.5
20260507213504 51 257 0.9 5.2 0.00 0.00 0.00 66 1009.4
20260507213004 51 182 0.9 3.5 0.00 0.00 0.00 66 1009.3
20260507212503 51 193 0.9 3.5 0.00 0.00 0.00 67 1009.2
20260507212002 51 215 0.0 5.2 0.00 0.00 0.00 68 1009.0
20260507211502 51 196 1.7 5.2 0.00 0.00 0.00 68 1009.0
20260507211002 51 200 0.0 1.7 0.00 0.00 0.00 68 1009.2
20260507210502 51 203 0.0 5.2 0.00 0.00 0.00 68 1009.2
20260507210002 51 210 1.7 5.2 0.00 0.00 0.00 68 1009.2
20260507205502 51 207 0.9 3.5 0.00 0.00 0.00 69 1009.2
20260507205002 51 225 1.7 4.3 0.00 0.00 0.00 69 1009.2
20260507204503 51 232 1.7 4.3 0.00 0.00 0.00 69 1009.1
20260507204001 51 194 0.9 4.3 0.00 0.00 0.00 69 1009.1
20260507203505 52 179 0.9 3.5 0.00 0.00 0.00 68 1009.0
20260507203003 52 158 0.9 2.6 0.00 0.00 0.00 67 1009.0
20260507202502 52 269 0.0 4.3 0.00 0.00 0.00 67 1008.9
20260507202002 52 200 0.9 5.2 0.00 0.00 0.00 66 1008.9
20260507201503 52 20 1.7 5.2 0.00 0.00 0.00 66 1008.9
20260507201004 52 164 1.7 5.2 0.00 0.00 0.00 66 1008.8
20260507200502 52 222 1.7 3.5 0.00 0.00 0.00 66 1008.8
20260507200002 52 222 1.7 5.2 0.00 0.00 0.00 66 1008.8
20260507195502 52 222 1.7 5.2 0.00 0.00 0.00 66 1008.9
20260507195002 52 136 1.7 5.2 0.00 0.00 0.00 65 1008.8
20260507194503 52 216 1.7 6.1 0.00 0.00 0.00 65 1008.7
20260507194002 53 166 2.6 6.1 0.00 0.00 0.00 64 1008.5
20260507193502 53 225 2.6 7.8 0.00 0.00 0.00 64 1008.4
20260507193005 53 203 1.7 7.8 0.00 0.00 0.00 64 1008.6
20260507192001 54 275 1.7 7.0 0.00 0.00 0.00 64 1008.6
20260507191503 55 214 2.6 7.0 0.00 0.00 0.00 63 1008.5
20260507191003 55 221 1.7 7.8 0.00 0.00 0.00 63 1008.6
20260507190503 55 197 2.6 8.7 0.00 0.00 0.00 63 1008.7
20260507190008 55 213 3.5 8.7 0.00 0.00 0.00 63 1008.7
20260507185503 55 250 3.5 8.7 0.00 0.00 0.00 61 1008.7
20260507185002 55 207 0.9 7.8 0.00 0.00 0.00 62 1008.5
20260507184503 56 127 3.5 7.8 0.00 0.00 0.00 61 1008.5
20260507184001 56 162 2.6 7.0 0.00 0.00 0.00 61 1008.4
20260507183502 56 134 1.7 7.0 0.00 0.00 0.00 61 1008.5
20260507183008 56 181 2.6 7.0 0.00 0.00 0.00 61 1008.5
20260507182503 56 164 1.7 6.1 0.00 0.00 0.00 61 1008.5
20260507182002 56 211 1.7 6.1 0.00 0.00 0.00 60 1008.3
20260507181505 56 221 0.9 6.1 0.00 0.00 0.00 61 1008.3
20260507181003 56 154 0.9 6.1 0.00 0.00 0.00 60 1008.3
20260507180502 56 195 1.7 7.0 0.00 0.00 0.00 60 1008.2
20260507180006 57 132 0.9 7.8 0.00 0.00 0.00 60 1008.1
20260507175504 56 221 1.7 7.8 0.00 0.00 0.00 59 1008.1
20260507175003 57 206 1.7 5.2 0.00 0.00 0.00 59 1008.0
20260507174503 57 193 1.7 6.1 0.00 0.00 0.00 61 1008.1
20260507174003 57 255 1.7 7.0 0.00 0.00 0.00 60 1008.3
20260507173505 57 181 2.6 7.8 0.00 0.00 0.00 60 1008.3
20260507173004 56 66 2.6 7.8 0.00 0.00 0.00 62 1008.4
20260507172503 55 209 1.7 5.2 0.00 0.00 0.00 64 1008.4
20260507172002 55 155 1.7 5.2 0.00 0.00 0.00 65 1008.4
20260507171503 55 248 0.9 8.7 0.00 0.00 0.00 66 1008.5
20260507171003 55 184 2.6 8.7 0.00 0.00 0.00 65 1008.5
20260507170503 55 190 2.6 7.8 0.00 0.00 0.00 65 1008.5
20260507170004 55 210 2.6 6.1 0.00 0.00 0.00 64 1008.5
20260507165002 55 221 3.5 8.7 0.00 0.00 0.00 62 1008.5
20260507164004 56 206 3.5 7.8 0.00 0.00 0.00 60 1008.5
20260507163003 56 210 3.5 8.7 0.00 0.00 0.00 59 1008.6
20260507162503 56 188 2.6 8.7 0.00 0.00 0.00 59 1008.6
20260507162003 56 186 3.5 7.8 0.00 0.00 0.00 60 1008.6
20260507161504 57 165 3.5 8.7 0.00 0.00 0.00 60 1008.6
20260507161003 56 349 1.7 8.7 0.00 0.00 0.00 60 1008.7
20260507160005 56 231 2.6 7.0 0.00 0.00 0.00 60 1008.7
20260507155505 56 139 2.6 7.0 0.00 0.00 0.00 61 1008.7
20260507154504 56 207 2.6 7.0 0.00 0.00 0.00 61 1008.8
20260507154003 56 262 1.7 9.6 0.00 0.00 0.00 64 1008.8
20260507153504 55 193 1.7 9.6 0.00 0.00 0.00 65 1008.9
20260507153005 55 204 2.6 11.3 0.00 0.00 0.00 65 1008.8
20260507152503 55 288 2.6 11.3 0.00 0.00 0.00 65 1008.9
20260507152003 56 262 2.6 11.3 0.00 0.00 0.00 60 1008.9
20260507151503 56 270 4.3 10.4 0.00 0.00 0.00 57 1008.9
20260507151003 56 142 3.5 10.4 0.00 0.00 0.00 58 1009.0
20260507150503 56 254 2.6 8.7 0.00 0.00 0.00 58 1009.0
20260507150010 56 186 2.6 12.2 0.00 0.00 0.00 60 1009.0
20260507145504 56 243 2.6 12.2 0.00 0.00 0.00 59 1009.0
20260507145003 56 215 4.3 9.6 0.00 0.00 0.00 59 1009.1
20260507144504 56 229 3.5 10.4 0.00 0.00 0.00 59 1009.1
20260507144005 56 65 5.2 10.4 0.00 0.00 0.00 59 1009.3
20260507143506 56 250 3.5 10.4 0.00 0.00 0.00 59 1009.2
20260507143004 56 235 1.7 10.4 0.00 0.00 0.00 59 1009.2
20260507142502 56 161 2.6 10.4 0.00 0.00 0.00 59 1009.2
20260507142006 56 206 3.5 10.4 0.00 0.00 0.00 59 1009.2
20260507141503 56 255 3.5 10.4 0.00 0.00 0.00 59 1009.3
20260507141007 56 186 2.6 10.4 0.00 0.00 0.00 60 1009.3
20260507140503 57 195 3.5 8.7 0.00 0.00 0.00 58 1009.3
20260507140005 56 148 3.5 8.7 0.00 0.00 0.00 59 1009.5
20260507135503 57 263 4.3 11.3 0.00 0.00 0.00 57 1009.4
20260507135003 57 205 5.2 12.2 0.00 0.00 0.00 57 1009.4
20260507134506 57 214 5.2 12.2 0.00 0.00 0.00 57 1009.5
20260507133503 57 242 2.6 8.7 0.00 0.00 0.00 59 1009.6
20260507133005 56 176 3.5 9.6 0.00 0.00 0.00 58 1009.7
20260507132003 56 231 3.5 10.4 0.00 0.00 0.00 58 1009.7
20260507131504 56 176 3.5 8.7 0.00 0.00 0.00 59 1009.7
20260507131002 54 201 3.5 8.7 0.00 0.00 0.00 62 1009.8
20260507130505 53 221 2.6 9.6 0.00 0.00 0.00 63 1009.9
20260507130007 53 262 2.6 9.6 0.00 0.00 0.00 63 1010.0
20260507125502 53 229 2.6 11.3 0.00 0.00 0.00 63 1010.0
20260507125003 53 167 4.3 11.3 0.00 0.00 0.00 62 1010.1
20260507124507 53 174 4.3 10.4 0.00 0.00 0.00 61 1010.0
20260507124004 53 243 2.6 9.6 0.00 0.00 0.00 61 1010.1
20260507123503 53 253 3.5 11.3 0.00 0.00 0.00 60 1010.1
20260507122503 53 198 3.5 7.0 0.00 0.00 0.00 60 1009.9
20260507122004 53 203 2.6 6.1 0.00 0.00 0.00 60 1010.1
20260507121504 53 204 1.7 7.0 0.00 0.00 0.00 60 1010.0
20260507121003 53 216 2.6 9.6 0.00 0.00 0.00 58 1010.0
20260507120504 54 287 3.5 9.6 0.00 0.00 0.00 58 1010.0
20260507120006 54 175 2.6 8.7 0.00 0.00 0.00 58 1010.0
20260507115504 54 201 3.5 8.7 0.00 0.00 0.00 57 1009.9
20260507115007 54 133 3.5 7.8 0.00 0.00 0.00 57 1010.0
20260507114504 54 227 3.5 7.0 0.00 0.00 0.00 57 1010.1
20260507114003 54 229 2.6 8.7 0.00 0.00 0.00 56 1010.0
20260507113502 54 203 3.5 10.4 0.00 0.00 0.00 56 1010.0
20260507113008 55 289 4.3 11.3 0.00 0.00 0.00 55 1009.9
20260507112004 55 187 3.5 9.6 0.00 0.00 0.00 56 1009.9
20260507111003 55 203 2.6 9.6 0.00 0.00 0.00 57 1009.9
20260507110505 55 192 4.3 10.4 0.00 0.00 0.00 56 1009.8
20260507110007 55 223 4.3 10.4 0.00 0.00 0.00 55 1009.9
20260507105503 55 278 3.5 10.4 0.00 0.00 0.00 55 1009.8
20260507105003 55 228 2.6 13.9 0.00 0.00 0.00 54 1009.8
20260507104511 56 239 5.2 13.9 0.00 0.00 0.00 53 1009.8
20260507104004 56 190 3.5 7.8 0.00 0.00 0.00 56 1009.8
20260507103504 55 214 2.6 8.7 0.00 0.00 0.00 58 1009.8
20260507103003 54 203 3.5 9.6 0.00 0.00 0.00 57 1009.8
20260507102505 54 199 4.3 9.6 0.00 0.00 0.00 56 1009.8
20260507102006 54 217 3.5 9.6 0.00 0.00 0.00 57 1010.0
20260507101512 54 199 4.3 8.7 0.00 0.00 0.00 55 1009.9
20260507101004 54 190 3.5 9.6 0.00 0.00 0.00 56 1010.0
20260507100016 54 168 5.2 13.0 0.00 0.00 0.00 53 1009.9
20260507095504 54 179 4.3 13.0 0.00 0.00 0.00 55 1009.9
20260507095003 54 219 5.2 13.0 0.00 0.00 0.00 56 1009.9
20260507094509 54 172 4.3 10.4 0.00 0.00 0.00 57 1009.8
20260507094004 53 219 3.5 10.4 0.00 0.00 0.00 56 1009.8
20260507093504 53 225 4.3 10.4 0.00 0.00 0.00 57 1009.9
20260507093006 53 91 4.3 11.3 0.00 0.00 0.00 57 1010.2
20260507092502 53 204 3.5 11.3 0.00 0.00 0.00 57 1010.3
20260507091504 54 255 2.6 6.1 0.00 0.00 0.00 58 1010.3
20260507091006 53 250 1.7 5.2 0.00 0.00 0.00 58 1010.2
20260507090505 53 214 2.6 5.2 0.00 0.00 0.00 58 1010.3
20260507090007 53 203 1.7 7.0 0.00 0.00 0.00 58 1010.3
20260507085504 53 235 2.6 7.0 0.00 0.00 0.00 59 1010.3
20260507085009 53 259 2.6 10.4 0.00 0.00 0.00 59 1010.4
20260507084513 53 227 3.5 10.4 0.00 0.00 0.00 58 1010.4
20260507084009 52 215 2.6 8.7 0.00 0.00 0.00 58 1010.3
20260507083507 52 161 3.5 8.7 0.00 0.00 0.00 59 1010.4
20260507082503 51 245 2.6 9.6 0.00 0.00 0.00 61 1010.2
20260507081503 51 200 3.5 10.4 0.00 0.00 0.00 62 1010.3
20260507081003 50 172 3.5 10.4 0.00 0.00 0.00 62 1010.3
20260507080504 50 272 2.6 9.6 0.00 0.00 0.00 63 1010.2
20260507080009 50 203 3.5 9.6 0.00 0.00 0.00 63 1010.3
20260507075503 50 211 4.3 9.6 0.00 0.00 0.00 63 1010.2
20260507075004 49 287 2.6 7.8 0.00 0.00 0.00 64 1010.3
20260507074523 49 214 3.5 7.8 0.00 0.00 0.00 64 1010.3
20260507074007 49 210 1.7 5.2 0.00 0.00 0.00 64 1010.4
20260507073016 49 193 1.7 8.7 0.00 0.00 0.00 64 1010.5
20260507072506 48 198 2.6 9.6 0.00 0.00 0.00 64 1010.4
20260507072006 48 178 2.6 9.6 0.00 0.00 0.00 64 1010.4
20260507071515 48 234 1.7 7.8 0.00 0.00 0.00 65 1010.4
20260507071003 48 209 3.5 7.8 0.00 0.00 0.00 64 1010.4
20260507070504 48 216 2.6 8.7 0.00 0.00 0.00 65 1010.4
20260507070009 47 161 2.6 8.7 0.00 0.00 0.00 65 1010.4
20260507065505 47 246 3.5 6.1 0.00 0.00 0.00 65 1010.3
20260507065005 47 191 1.7 4.3 0.00 0.00 0.00 66 1010.3
20260507064510 47 201 0.0 7.8 0.00 0.00 0.00 66 1010.4
20260507064004 47 218 1.7 7.8 0.00 0.00 0.00 66 1010.4
20260507063504 46 158 2.6 6.1 0.00 0.00 0.00 66 1010.4
20260507063015 46 219 1.7 6.1 0.00 0.00 0.00 66 1010.4
20260507062505 46 174 1.7 7.0 0.00 0.00 0.00 67 1010.4
20260507062008 45 163 2.6 7.0 0.00 0.00 0.00 67 1010.3
20260507061518 45 299 1.7 6.1 0.00 0.00 0.00 69 1010.3
20260507061006 44 208 0.9 3.5 0.00 0.00 0.00 71 1010.4
20260507060507 44 288 0.0 0.9 0.00 0.00 0.00 73 1010.6
20260507060020 44 359 0.0 1.7 0.00 0.00 0.00 73 1010.6
20260507055506 44 359 0.9 2.6 0.00 0.00 0.00 73 1010.6
20260507055002 44 347 0.0 2.6 0.00 0.00 0.00 73 1010.7
20260507054507 44 39 0.9 1.7 0.00 0.00 0.00 72 1010.7
20260507054004 44 12 0.0 1.7 0.00 0.00 0.00 72 1010.7
20260507053503 44 139 0.0 1.7 0.00 0.00 0.00 72 1010.7
20260507053008 43 3 0.0 1.7 0.00 0.00 0.00 72 1010.7
20260507052506 44 246 0.0 0.9 0.00 0.00 0.00 72 1010.8
20260507050018 44 24 0.0 3.5 0.00 0.00 0.00 71 1010.7
20260507043008 43 18 0.9 3.5 0.00 0.00 0.00 70 1010.8
20260507040507 44 248 0.9 1.7 0.00 0.00 0.00 69 1010.7
20260507034007 45 214 0.9 6.1 0.00 0.00 0.00 67 1010.8
20260507033510 45 174 0.9 9.6 0.00 0.00 0.00 67 1010.8
20260507031005 45 188 1.7 7.8 0.00 0.00 0.00 66 1010.9
20260507030505 46 209 0.9 9.6 0.00 0.00 0.00 65 1010.9
20260507023004 46 226 2.6 8.7 0.00 0.00 0.00 63 1011.1
20260507020504 46 30 1.7 7.8 0.00 0.00 0.00 63 1011.2